TimeCST,TemperatureF,Dew PointF,Humidity,Sea Level PressureIn,VisibilityMPH,Wind Direction,Wind SpeedMPH,Gust SpeedMPH,PrecipitationIn,Events,Conditions,WindDirDegrees,DateUTC
12:55 AM,-9999,-9999,N/A,30.22,10.0,WNW,3.5,-,N/A,,Clear,290,2013-01-17 06:55:00
1:15 AM,-9999,-9999,N/A,30.23,10.0,WNW,3.5,-,N/A,,Clear,290,2013-01-17 07:15:00
1:35 AM,35.6,35.6,100,30.23,10.0,Calm,Calm,-,N/A,,Clear,0,2013-01-17 07:35:00
1:55 AM,35.6,35.6,100,30.24,10.0,Calm,Calm,-,N/A,,Clear,0,2013-01-17 07:55:00
2:15 AM,35.6,35.6,100,30.25,10.0,West,3.5,-,N/A,,Clear,280,2013-01-17 08:15:00
2:35 AM,35.6,35.6,100,30.26,10.0,West,3.5,-,N/A,,Clear,280,2013-01-17 08:35:00
2:55 AM,35.6,35.6,100,30.25,10.0,Calm,Calm,-,N/A,,Clear,0,2013-01-17 08:55:00
3:15 AM,33.8,33.8,100,30.25,10.0,Calm,Calm,-,N/A,,Clear,0,2013-01-17 09:15:00
3:35 AM,33.8,33.8,100,30.26,10.0,Calm,Calm,-,N/A,,Clear,0,2013-01-17 09:35:00
3:55 AM,33.8,33.8,100,30.26,10.0,Calm,Calm,-,N/A,,Clear,0,2013-01-17 09:55:00
4:15 AM,33.8,33.8,100,30.27,10.0,Calm,Calm,-,N/A,,Clear,0,2013-01-17 10:15:00
4:35 AM,33.8,33.8,100,30.26,10.0,Calm,Calm,-,N/A,,Clear,0,2013-01-17 10:35:00
4:55 AM,32.0,32.0,100,30.27,10.0,Calm,Calm,-,N/A,,Clear,0,2013-01-17 10:55:00
5:15 AM,32.0,32.0,100,30.28,10.0,Calm,Calm,-,N/A,,Clear,0,2013-01-17 11:15:00
5:35 AM,32.0,32.0,100,30.28,10.0,Calm,Calm,-,N/A,,Clear,0,2013-01-17 11:35:00
5:55 AM,32.0,32.0,100,30.28,10.0,Calm,Calm,-,N/A,,Clear,0,2013-01-17 11:55:00
6:15 AM,-9999,-9999,N/A,30.28,10.0,NW,3.5,-,N/A,,Clear,320,2013-01-17 12:15:00
6:35 AM,32.0,32.0,100,30.29,10.0,Calm,Calm,-,N/A,,Clear,0,2013-01-17 12:35:00
6:55 AM,32.0,32.0,100,30.30,10.0,Calm,Calm,-,N/A,,Clear,0,2013-01-17 12:55:00
7:15 AM,-9999,-9999,N/A,30.31,10.0,West,3.5,-,N/A,,Clear,260,2013-01-17 13:15:00
7:35 AM,-9999,-9999,N/A,30.33,10.0,Calm,Calm,-,N/A,,Clear,0,2013-01-17 13:35:00
7:55 AM,33.8,33.8,100,30.34,10.0,West,3.5,-,N/A,,Clear,260,2013-01-17 13:55:00
8:15 AM,33.8,33.8,100,30.34,10.0,WNW,3.5,-,N/A,,Clear,290,2013-01-17 14:15:00
8:55 AM,37.4,37.4,100,30.37,10.0,WNW,3.5,-,N/A,,Clear,290,2013-01-17 14:55:00
9:15 AM,41.0,37.4,87,30.38,10.0,WNW,3.5,-,N/A,,Clear,300,2013-01-17 15:15:00
9:35 AM,42.8,33.8,70,30.38,10.0,NW,5.8,-,N/A,,Clear,310,2013-01-17 15:35:00
9:55 AM,44.6,33.8,66,30.38,10.0,NW,5.8,-,N/A,,Clear,310,2013-01-17 15:55:00
10:15 AM,46.4,33.8,62,30.38,10.0,NW,6.9,-,N/A,,Clear,310,2013-01-17 16:15:00
10:35 AM,48.2,32.0,54,30.38,10.0,WNW,5.8,-,N/A,,Clear,300,2013-01-17 16:35:00
10:55 AM,50.0,32.0,50,30.37,10.0,NW,8.1,-,N/A,,Clear,320,2013-01-17 16:55:00
11:15 AM,51.8,32.0,47,30.36,10.0,NNW,8.1,16.1,N/A,,Clear,330,2013-01-17 17:15:00
11:35 AM,53.6,30.2,41,30.35,10.0,NW,10.4,-,N/A,,Clear,310,2013-01-17 17:35:00
11:55 AM,53.6,32.0,44,30.34,10.0,NNW,6.9,-,N/A,,Clear,330,2013-01-17 17:55:00
12:15 PM,55.4,28.4,36,30.33,10.0,NW,11.5,19.6,N/A,,Clear,320,2013-01-17 18:15:00
12:35 PM,57.2,30.2,36,30.32,10.0,NNW,8.1,-,N/A,,Clear,340,2013-01-17 18:35:00
12:55 PM,57.2,30.2,36,30.32,10.0,WNW,6.9,17.3,N/A,,Clear,300,2013-01-17 18:55:00
1:15 PM,57.2,30.2,36,30.31,10.0,NNW,6.9,16.1,N/A,,Clear,330,2013-01-17 19:15:00
1:35 PM,59.0,32.0,36,30.31,10.0,WNW,10.4,17.3,N/A,,Clear,300,2013-01-17 19:35:00
1:55 PM,59.0,32.0,36,30.30,10.0,NW,11.5,-,N/A,,Clear,310,2013-01-17 19:55:00
2:15 PM,59.0,32.0,36,30.30,10.0,NW,5.8,-,N/A,,Clear,320,2013-01-17 20:15:00
2:35 PM,59.0,33.8,39,30.29,10.0,NNW,10.4,17.3,N/A,,Clear,330,2013-01-17 20:35:00
2:55 PM,59.0,32.0,36,30.30,10.0,North,10.4,19.6,N/A,,Clear,350,2013-01-17 20:55:00
3:15 PM,59.0,32.0,36,30.30,10.0,NW,8.1,-,N/A,,Clear,320,2013-01-17 21:15:00
3:55 PM,59.0,33.8,39,30.32,10.0,NW,6.9,-,N/A,,Clear,310,2013-01-17 21:55:00
4:55 PM,57.2,33.8,41,30.36,10.0,North,9.2,-,N/A,,Clear,360,2013-01-17 22:55:00
5:15 PM,55.4,35.6,47,30.36,10.0,North,10.4,16.1,N/A,,Clear,350,2013-01-17 23:15:00
5:35 PM,53.6,35.6,51,30.38,10.0,North,5.8,-,N/A,,Clear,360,2013-01-17 23:35:00
5:55 PM,50.0,35.6,58,30.39,10.0,Calm,Calm,-,N/A,,Clear,0,2013-01-17 23:55:00
6:35 PM,41.0,41.0,100,30.40,10.0,Calm,Calm,-,N/A,,Clear,0,2013-01-18 00:35:00
7:15 PM,-9999,-9999,N/A,30.41,10.0,Calm,Calm,-,N/A,,Clear,0,2013-01-18 01:15:00
7:35 PM,-9999,-9999,N/A,30.42,10.0,Calm,Calm,-,N/A,,Clear,0,2013-01-18 01:35:00
7:55 PM,-9999,-9999,N/A,30.43,10.0,Calm,Calm,-,N/A,,Clear,0,2013-01-18 01:55:00
8:15 PM,-9999,-9999,N/A,30.43,10.0,Calm,Calm,-,N/A,,Clear,0,2013-01-18 02:15:00
8:35 PM,-9999,-9999,N/A,30.44,10.0,Calm,Calm,-,N/A,,Clear,0,2013-01-18 02:35:00
8:55 PM,-9999,-9999,N/A,30.44,10.0,Calm,Calm,-,N/A,,Clear,0,2013-01-18 02:55:00
9:15 PM,-9999,-9999,N/A,30.45,10.0,Calm,Calm,-,N/A,,Clear,0,2013-01-18 03:15:00
9:35 PM,-9999,-9999,N/A,30.45,10.0,Calm,Calm,-,N/A,,Clear,0,2013-01-18 03:35:00
9:55 PM,-9999,-9999,N/A,30.46,10.0,Calm,Calm,-,N/A,,Clear,0,2013-01-18 03:55:00
11:15 PM,-9999,-9999,N/A,30.47,10.0,Calm,Calm,-,N/A,,Clear,0,2013-01-18 05:15:00
11:35 PM,-9999,-9999,N/A,30.48,10.0,Calm,Calm,-,N/A,,Clear,0,2013-01-18 05:35:00
11:55 PM,-9999,-9999,N/A,30.48,10.0,Calm,Calm,-,N/A,,Clear,0,2013-01-18 05:55:00